Weather History for KBFD - July, 2013

Change the Weather History Date:

Sunday, July 28, 2013

  Actual Average Record
Temperature  
Mean Temperature 60 °F 65 °F  
Max Temperature 72 °F 77 °F 86 °F (1964)
Min Temperature 48 °F 53 °F 37 °F (1971)
Degree Days  
Heating Degree Days 5 0  
Month to date heating degree days 37 1  
Since 1 June heating degree days 141 146  
Since 1 July heating degree days 37 1  
Cooling Degree Days 0 2  
Month to date cooling degree days 148 64  
Year to date cooling degree days 241 114  
Since 1 June cooling degree days 198 104  
Growing Degree Days 13 (Base 50)    
Moisture  
Dew Point 57 °F    
Average Humidity 70    
Maximum Humidity 90    
Minimum Humidity 49    
Precipitation  
Precipitation 0.15 in 0.14 in 2.50 in (1981)
Month to date precipitation 2.62 3.79  
Year to date precipitation 18.26 25.44  
Sea Level Pressure  
Sea Level Pressure 29.92 in    
Wind  
Wind Speed 5 mph (SW)    
Max Wind Speed 14 mph    
Max Gust Speed 20 mph    
Visibility 7 miles    
Events Rain    
T = Trace of Precipitation, MM = Missing Value Source: NWS Daily Summary

Daily Weather History Graph

Daily Weather History Graph

Search for Another Location

Airport or City:

Trip Planner

Search our weather history database for the weather conditions in past years. The results will help you decide how hot, cold, wet, or windy it might be!

Date:

Astronomy

Jul. 28, 2013 Rise Set
Actual Time 6:04 AM EDT 8:36 PM EDT
Civil Twilight 5:32 AM EDT 9:08 PM EDT
Nautical Twilight 4:53 AM EDT 9:47 PM EDT
Astronomical Twilight 4:08 AM EDT 10:32 PM EDT
Moon 11:49 PM EDT (7/28) 12:52 PM EDT (7/28)
Length of Visible Light 15h 35m
Length of Day
14h 31m
Waning Gibbous, 61% of the Moon is Illuminated
Jul 28
Waning Gibbous
Jul 29
Last Quarter
Aug 6
New
Aug 14
First Quarter
Aug 20
Full

Hourly Weather History & Observations

Time (EDT) Temp. Dew Point Humidity Pressure Visibility Wind Dir Wind Speed Gust Speed Precip Events Conditions
12:01 AM 64.9 °F 62.1 °F 90% 29.90 in 8.0 mi South 5.8 mph - N/A   Overcast
12:13 AM 64.9 °F 62.1 °F 90% 29.90 in 8.0 mi South 5.8 mph - N/A   Overcast
12:29 AM 64.9 °F 62.1 °F 90% 29.90 in 7.0 mi Variable 3.5 mph - N/A   Overcast
12:53 AM 64.9 °F 61.0 °F 87% 29.86 in 7.0 mi WSW 6.9 mph - N/A   Overcast
1:00 AM 64.9 °F 61.0 °F 87% 29.90 in 8.0 mi Variable 6.9 mph - N/A   Overcast
1:17 AM 64.0 °F 61.0 °F 90% 29.90 in 5.0 mi Variable 4.6 mph - 0.01 in Rain Light Rain
1:36 AM 64.0 °F 61.0 °F 90% 29.91 in 3.0 mi WSW 4.6 mph - 0.04 in Rain Rain
1:41 AM 64.0 °F 61.0 °F 90% 29.90 in 4.0 mi Variable 4.6 mph - 0.05 in Rain Rain
1:50 AM 64.4 °F 60.8 °F 88% 29.89 in 2.5 mi Variable 3.5 mph - 0.09 in Rain Heavy Rain
1:51 AM 64.0 °F 61.0 °F 90% 29.86 in 2.5 mi West 3.5 mph - 0.09 in Rain Heavy Rain
1:58 AM 63.0 °F 61.0 °F 93% 29.89 in 3.0 mi Calm Calm - 0.01 in Rain Light Rain
2:26 AM 63.0 °F 61.0 °F 93% 29.89 in 5.0 mi Calm Calm - 0.01 in   Overcast
2:42 AM 63.0 °F 61.0 °F 93% 29.90 in 6.0 mi Calm Calm - 0.01 in Rain Light Rain
2:53 AM 63.0 °F 61.0 °F 93% 29.86 in 5.0 mi Calm Calm - 0.01 in Rain Light Rain
3:25 AM 63.0 °F 60.1 °F 90% 29.89 in 6.0 mi Variable 3.5 mph - 0.00 in   Overcast
3:53 AM 62.1 °F 60.1 °F 93% 29.88 in 7.0 mi SSW 3.5 mph - 0.00 in   Mostly Cloudy
4:53 AM 61.0 °F 57.9 °F 90% 29.87 in 9.0 mi SSE 3.5 mph - N/A   Scattered Clouds
5:38 AM 61.0 °F 57.0 °F 87% 29.92 in 9.0 mi South 4.6 mph - N/A   Overcast
5:53 AM 61.0 °F 57.0 °F 87% 29.91 in 10.0 mi SW 4.6 mph - N/A   Overcast
6:00 AM 61.0 °F 57.0 °F 87% 29.93 in 9.0 mi Calm Calm - N/A   Overcast
6:22 AM 61.0 °F 57.0 °F 87% 29.93 in 10.0 mi SW 4.6 mph - 0.00 in Rain Light Rain
6:53 AM 60.1 °F 57.0 °F 90% 29.91 in 7.0 mi South 3.5 mph - 0.02 in Rain Light Rain
7:12 AM 60.1 °F 57.0 °F 90% 29.94 in 4.0 mi Calm Calm - 0.00 in Rain Light Rain
7:53 AM 60.1 °F 57.9 °F 93% 29.91 in 3.0 mi SSE 3.5 mph - 0.02 in Rain Light Rain
8:32 AM 61.0 °F 57.9 °F 90% 29.94 in 4.0 mi Calm Calm - 0.01 in Rain Light Rain
8:53 AM 61.0 °F 57.9 °F 90% 29.91 in 4.0 mi West 5.8 mph - 0.01 in Rain Light Rain
9:04 AM 61.0 °F 57.9 °F 90% 29.94 in 5.0 mi West 4.6 mph - 0.00 in   Mostly Cloudy
9:51 AM 62.6 °F 57.2 °F 82% 29.94 in 7.0 mi West 5.8 mph - 0.00 in   Overcast
9:53 AM 63.0 °F 57.9 °F 84% 29.91 in 7.0 mi Variable 5.8 mph - 0.00 in   Overcast
10:25 AM 64.9 °F 57.9 °F 78% 29.94 in 10.0 mi West 4.6 mph - N/A   Mostly Cloudy
10:50 AM 64.4 °F 57.2 °F 77% 29.94 in 10.0 mi Variable 6.9 mph - N/A   Overcast
10:53 AM 64.0 °F 57.0 °F 78% 29.91 in 10.0 mi WSW 5.8 mph - N/A   Mostly Cloudy
11:53 AM 68.0 °F 55.0 °F 63% 29.91 in 10.0 mi Variable 5.8 mph - N/A   Scattered Clouds
12:53 PM 70.0 °F 53.1 °F 55% 29.91 in 10.0 mi SSW 8.1 mph - N/A   Scattered Clouds
1:53 PM 71.1 °F 53.1 °F 53% 29.91 in 10.0 mi West 8.1 mph - N/A   Clear
2:53 PM 69.1 °F 52.0 °F 54% 29.92 in 10.0 mi WSW 10.4 mph - N/A   Mostly Cloudy
3:53 PM 71.1 °F 51.1 °F 49% 29.91 in 10.0 mi West 9.2 mph 19.6 mph N/A   Scattered Clouds
4:53 PM 70.0 °F 51.1 °F 51% 29.93 in 10.0 mi West 9.2 mph - N/A   Mostly Cloudy
5:53 PM 69.1 °F 51.1 °F 53% 29.94 in 10.0 mi West 11.5 mph - N/A   Mostly Cloudy
6:53 PM 66.9 °F 48.9 °F 52% 29.96 in 10.0 mi West 6.9 mph - N/A   Scattered Clouds
7:53 PM 64.9 °F 48.9 °F 56% 29.97 in 10.0 mi Calm Calm - N/A   Clear
8:53 PM 61.0 °F 50.0 °F 67% 30.00 in 10.0 mi West 3.5 mph - N/A   Clear
9:53 PM 57.9 °F 48.9 °F 72% 30.02 in 10.0 mi Calm Calm - N/A   Clear
10:53 PM 55.9 °F 48.9 °F 77% 30.03 in 10.0 mi Calm Calm - N/A   Partly Cloudy
11:53 PM 54.0 °F 48.0 °F 80% 30.03 in 10.0 mi Calm Calm - N/A   Clear